• Join FlightAware (Why Join?)
  • Login
  • US Flag 
08:37AM EDT


 

Airport Tracker/Info


-or-


 

Live Flight TrackerFlight Track Log ✈ AWE3417 ✈ 08-Apr-2013 ✈ KDCA - KCMH

Flight Track Log - Related Links

Times and Time Zones

All times are in EDT time to prevent confusion due to time zone crossing. See the AWE3417 flight status page for this flight to view local times or setup timezone preferences in your user account.

Time Position Orientation Groundspeed Altitude Reporting Facility
EDT Latitude Longitude Course Direction KTS MPH feet Rate Location/Type
07:35PM 38.8000 -77.0333 274° West 181 208 2,400  Level Potomac TRACON
07:36PM 38.7333 -77.0333 180° South 247 284 4,400 1,200 Climbing Potomac TRACON
07:37PM 38.9139 -77.3612 303° West  Level FlightAware Approximate
07:37PM 38.7167 -77.1167 256° West 257 296 5,000  Level Potomac TRACON
07:38PM 38.9333 -77.4720 270° West  Level FlightAware Approximate
07:38PM 38.7167 -77.2000 270° West 270 311 8,000  Level Potomac TRACON
07:39PM 38.9333 -77.5902 270° West  Level FlightAware Approximate
07:39PM 38.7500 -77.3000 293° West 275 316 11,100  Level Potomac TRACON
07:40PM 38.9333 -77.7084 270° West  Level FlightAware Approximate
07:41PM 38.9364 -77.8264 274° West  Level FlightAware Approximate
07:41PM 38.8464 -77.4842 304° West 332 382 15,400  Level Washington Center
07:42PM 38.9028 -77.6003 302° West 344 396 17,000 1,500 Climbing Washington Center
07:43PM 38.9428 -77.7108 295° West 365 420 18,500 1,920 Climbing Washington Center
07:44PM 38.9483 -77.8550 273° West 365 420 20,900 2,100 Climbing Washington Center
07:45PM 38.9519 -77.9914 272° West 386 444 22,700 1,740 Climbing Washington Center
07:46PM 38.9556 -78.1303 272° West 386 444 24,400 1,500 Climbing Washington Center
07:47PM 38.9608 -78.2719 273° West 386 444 25,800 1,260 Climbing Washington Center
07:48PM 38.9636 -78.4161 271° West 396 456 27,000 600 Climbing Washington Center
07:49PM 38.9686 -78.5606 273° West 403 464 27,000  Level Washington Center
07:50PM 38.9711 -78.7047 271° West 403 464 27,000  Level Washington Center
07:51PM 38.9758 -78.8467 272° West 403 464 27,000  Level Washington Center
07:52PM 38.9800 -78.9883 272° West 403 464 27,000  Level Washington Center
07:53PM 38.9842 -79.1328 272° West 403 464 27,000 300 Level Washington Center
07:54PM 38.9842 -79.2769 270° West 403 464 27,600 960 Climbing Washington Center
07:55PM 38.9883 -79.4133 272° West 403 464 29,000 1,260 Climbing Washington Center
07:58PM 38.9981 -79.7519 272° West 389 448 32,000 840 Climbing Indianapolis Center
07:59PM 39.0008 -79.8881 272° West 393 452 32,000  Level Indianapolis Center
08:00PM 39.0022 -80.0236 271° West 394 453 32,000  Level Indianapolis Center
08:01PM 39.0050 -80.1756 271° West 393 452 32,000  Level Indianapolis Center
08:02PM 39.0083 -80.3164 272° West 394 453 32,000  Level Indianapolis Center
08:03PM 39.0092 -80.4578 270° West 396 456 32,000  Level Indianapolis Center
08:04PM 39.0106 -80.5972 271° West 392 451 32,000 -300 Level Indianapolis Center
08:06PM 39.0356 -80.8683 277° West 396 456 31,100 -660 Descending Indianapolis Center
08:07PM 39.1000 -81.0219 298° West 406 467 30,100 -1,080 Descending Indianapolis Center
08:08PM 39.1542 -81.1561 298° West 422 486 28,900 -1,320 Descending Indianapolis Center
08:09PM 39.2039 -81.2936 295° West 426 490 27,400 -1,500 Descending Indianapolis Center
08:10PM 39.2525 -81.4247 296° West 410 472 25,900 -1,500 Descending Indianapolis Center
08:11PM 39.2997 -81.5531 295° West 400 460 24,400 -1,500 Descending Indianapolis Center
08:12PM 39.3406 -81.6769 293° West 373 429 22,900 -1,620 Descending Indianapolis Center
08:13PM 39.3547 -81.7972 279° West 345 397 21,100 -2,040 Descending Indianapolis Center
08:14PM 39.3886 -81.9000 293° West 338 389 19,300 -2,280 Descending Indianapolis Center
08:14PM 39.4033 -81.9283 304° West 340 391 18,800 -1,980 Descending Indianapolis Center
08:15PM 39.4222 -81.9706 300° West 335 386 17,900 -1,860 Descending Indianapolis Center
08:15PM 39.4492 -82.0311 300° West 330 380 16,900 -1,800 Descending Indianapolis Center
08:16PM 39.4700 -82.0806 299° West 327 376 16,100 -1,800 Descending Indianapolis Center
08:16PM 39.4942 -82.1325 301° West 325 374 15,100 -1,800 Descending Indianapolis Center
08:17PM 39.5197 -82.1908 300° West 329 379 14,100 -2,100 Descending Indianapolis Center
08:17PM 39.5400 -82.2303 304° West 330 380 13,000 -2,220 Descending Indianapolis Center
08:18PM 39.5792 -82.2781 317° Northwest 321 369 11,900 -1,980 Descending Indianapolis Center
08:18PM 39.6072 -82.3075 321° Northwest 321 369 11,000 -1,320 Descending Indianapolis Center
08:19PM 39.6453 -82.3553 316° Northwest 325 374 10,600 -720 Descending Indianapolis Center
08:19PM 39.6747 -82.3864 321° Northwest 323 372 10,300 -360 Descending Indianapolis Center
08:20PM 39.7039 -82.4239 315° West 305 351 10,300 -1,020 Level Indianapolis Center
08:20PM 39.7397 -82.4644 319° Northwest 268 308 9,300 -1,620 Descending Indianapolis Center
08:21PM 39.7564 -82.4864 315° West 248 285 8,700 -1,980 Descending Indianapolis Center
08:21PM 39.7933 -82.5278 319° Northwest 260 299 7,300 -1,980 Descending Indianapolis Center
08:22PM 39.8086 -82.5489 313° West 254 292 6,700 -1,980 Descending Indianapolis Center
08:22PM 39.8472 -82.5922 319° Northwest 262 302 5,300 -2,040 Descending Indianapolis Center
08:23PM 39.8669 -82.6178 315° West 267 307 4,700 -1,380 Descending Indianapolis Center
08:23PM 39.9006 -82.6569 318° Northwest 260 299 3,900 -1,320 Descending Indianapolis Center
08:24PM 39.9214 -82.6836 316° Northwest 261 300 3,400 -1,140 Descending Indianapolis Center
08:24PM 39.9547 -82.7211 319° Northwest 261 300 2,800 -660 Descending Indianapolis Center
08:25PM 39.9997 -82.7814 314° West 243 280 2,300 -660 Descending Indianapolis Center
08:26PM 39.9986 -82.8289 268° West 161 185 1,500 -780 Descending Indianapolis Center